[[{"header":{"parameterUnit":"m.s-1","parameterCategory":1,"la1":30.2991,"la2":30.254,"lo1":-89.0895,"lo2":-89.0444,"dy":0.0017,"dx":0.0017,"nx":28,"ny":28,"refTime":"2024-03-28T21:00:00:Z","depth":0,"parameterNumber":2,"parameterNumberName":"U-component_of_WINDS"},"data":[0,0,0,0,0,0,0,0,0,0,0,0,0,0,0,0,0,0,0,0,0,0,0,0,0,0,0,0,0,0,0,0,0,0,0,0,0,0,0,0,0,0,0,0,0,0,0,0,0,0,0,0,0,0,0,0,0,0,0.4826,0.4826,0,0.4819,0.4819,0.4819,0.479,0.4789,0.4789,0.4788,0.4782,0.4782,0.4782,0,0,0,0,0,0,0,0,0,0,0,0,0,0.4816,0.4817,0.4826,0.4826,0.4826,0.4819,0.4819,0.4819,0.479,0.4789,0.4789,0.4788,0.4781,0.4782,0.4782,0,0,0,0,0,0,0,0,0,0,0,0,0,0.4816,0.4817,0.4826,0.4811,0.4809,0.4819,0.4819,0.4819,0.479,0.4789,0.4788,0.4787,0.4781,0.4782,0.4783,0.4806,0,0,0.4785,0.4785,0,0,0,0,0,0,0,0,0.4816,0.4816,0.4813,0.4812,0.481,0.4804,0.4813,0.4815,0.4791,0.4798,0.4788,0.4787,0.479,0.479,0.4791,0.4806,0.4806,0.4785,0.4785,0.4785,0.4785,0,0,0,0,0,0,0,0.4816,0.4817,0.4823,0.4813,0.4811,0.4805,0.4804,0.4813,0.4799,0.4797,0.4795,0.4794,0.4789,0.479,0.479,0.4806,0.4785,0.4785,0.4786,0.4786,0.4842,0.4843,0,0,0,0,0,0,0.4818,0.4817,0.4823,0.4823,0.4811,0.4806,0.4804,0.4807,0.4799,0.4797,0.4795,0.4793,0.4789,0.479,0.479,0.4818,0.4785,0.4786,0.4786,0.4841,0.4842,0.4843,0,0,0,0,0,0,0.4818,0.4819,0.4824,0.4819,0.4819,0.4807,0.481,0.4808,0.4809,0.4798,0.4795,0.4799,0.4789,0.4789,0.4803,0.4817,0.4786,0.4787,0.4839,0.4841,0.4842,0.4874,0,0,0,0,0,0,0.4818,0.4819,0.4828,0.482,0.482,0.4836,0.4811,0.4808,0.481,0.4807,0.4801,0.4799,0.4788,0.4802,0.4803,0.4818,0.4787,0.4838,0.484,0.4842,0.4872,0.4876,0.4881,0,0,0,0,0,0.4818,0.4837,0.4828,0.4829,0.483,0.4837,0.4837,0.4824,0.4811,0.482,0.4813,0.4799,0.4816,0.4804,0.4805,0.482,0.4837,0.4839,0.4842,0.4869,0.4875,0.4881,0,0,0,0,0,0,0.4847,0.4835,0.4826,0.4843,0.4841,0.4832,0.4843,0.4831,0.4833,0.483,0.4814,0.4813,0.4829,0.4826,0.4813,0.4843,0.4824,0.4827,0.4845,0.485,0.4855,0.4855,0.4788,0,0,0,0,0,0.4855,0.4861,0.4851,0.4867,0.4867,0.4855,0.4858,0.4848,0.4846,0.4845,0.4839,0.4838,0.4843,0.4846,0.485,0.4871,0.487,0.4882,0.4887,0.489,0.4893,0.4905,0.491,0.4851,0.4851,0.4851,0,0,0.4872,0.4867,0.4872,0.4873,0.487,0.4878,0.4855,0.4863,0.4868,0.4846,0.4859,0.4855,0.4852,0.487,0.4877,0.4867,0.4909,0.4894,0.4897,0.4897,0.4908,0.4913,0.4918,0.4853,0.4852,0.4852,0,0,0.4907,0.4904,0.4917,0.4915,0.4912,0.4904,0.4908,0.4901,0.4897,0.491,0.4893,0.49,0.4909,0.4908,0.4909,0.4945,0.4932,0.4947,0.4971,0.4982,0.4987,0.4991,0.5004,0.5009,0.495,0.495,0.495,0,0.4929,0.4939,0.4925,0.4935,0.4937,0.4917,0.4931,0.493,0.4928,0.493,0.4919,0.493,0.4927,0.4945,0.4954,0.4955,0.4959,0.4947,0.4987,0.4991,0.4995,0.5007,0.5012,0.4952,0.4951,0.4951,0.4951,0,0.4967,0.4974,0.4985,0.4984,0.4987,0.4999,0.4987,0.4992,0.4982,0.4976,0.499,0.4985,0.4989,0.4992,0.4983,0.5009,0.5003,0.499,0.497,0.5002,0.5014,0.5019,0.4954,0.4953,0.4953,0.4952,0,0,0.5019,0.5011,0.5015,0.5015,0.501,0.5016,0.5028,0.5031,0.5035,0.5035,0.5045,0.5053,0.5041,0.5042,0.5033,0.5043,0.5073,0.5029,0.5029,0.5038,0.5102,0.5112,0.5118,0.5065,0.5066,0.5067,0.5103,0,0.5053,0.5071,0.5059,0.508,0.5087,0.5069,0.5079,0.5078,0.5073,0.5079,0.5073,0.5079,0.5063,0.5064,0.5073,0.5068,0.5086,0.5065,0.5074,0.5075,0.5075,0.5124,0.5134,0.5168,0.5107,0.5108,0.5108,0,0.5094,0.5096,0.5117,0.5112,0.5115,0.5124,0.5126,0.5132,0.5131,0.5126,0.5128,0.5117,0.5128,0.511,0.5126,0.5112,0.5115,0.5113,0.5114,0.5114,0.5093,0.5126,0.5179,0.5184,0.5115,0.5115,0.5114,0,0.513,0.5138,0.5152,0.5152,0.5147,0.5154,0.5152,0.515,0.5153,0.5155,0.5157,0.5161,0.5163,0.5167,0.5158,0.5145,0.5175,0.5156,0.5172,0.5173,0.5179,0.5179,0.5234,0.5182,0.5182,0.5182,0.5181,0,0.5169,0.5183,0.5168,0.5177,0.5192,0.5179,0.5195,0.5191,0.519,0.5198,0.5183,0.5191,0.5178,0.5185,0.5178,0.5193,0.5194,0.5191,0.5189,0.5192,0.5192,0.5194,0.5191,0.5183,0.5183,0.5182,0.5182,0,0.5211,0.5202,0.5216,0.5211,0.521,0.5221,0.5216,0.5224,0.5219,0.5229,0.5231,0.5222,0.523,0.5221,0.5227,0.5223,0.5243,0.5237,0.5243,0.5242,0.5259,0.5258,0.5317,0.5324,0.5267,0.5268,0.5268,0,0.5237,0.5247,0.5242,0.5247,0.5246,0.5253,0.5256,0.5244,0.5248,0.5248,0.5257,0.5263,0.5267,0.5281,0.5275,0.528,0.5275,0.5295,0.5276,0.5279,0.5276,0.5275,0.5276,0.5299,0.53,0.53,0.5301,0,0.5282,0.5278,0.5282,0.5286,0.5291,0.5293,0.5294,0.5299,0.5287,0.5292,0.53,0.5303,0.5311,0.5318,0.5322,0.532,0.5309,0.5307,0.5311,0.5315,0.5318,0.5317,0.5254,0.5306,0.5305,0.5305,0.5305,0.5304,0.5317,0.5325,0.5324,0.533,0.533,0.5332,0.534,0.5335,0.5341,0.5346,0.5339,0.5349,0.5349,0.5353,0.5353,0.5361,0.5353,0.5359,0.536,0.5362,0.5365,0.5317,0.5362,0.5362,0.5362,0.5362,0.5361,0,0.5362,0.536,0.5366,0.5369,0.5374,0.5363,0.5364,0.537,0.5378,0.5379,0.5384,0.5393,0.54,0.5396,0.5402,0.5409,0.5404,0.5411,0.541,0.5411,0.5372,0.5368,0.5415,0.5415,0.5415,0.5415,0.5415,0.5415,0.5386,0.54,0.5396,0.541,0.5408,0.5418,0.5419,0.5422,0.5422,0.5433,0.5439,0.5436,0.5435,0.5441,0.5447,0.5446,0.5449,0.5458,0.5455,0.5418,0.5413,0.5408,0.5404,0.5458,0.5459,0.5493,0.5493,0.5493]},{"header":{"parameterUnit":"m.s-1","parameterCategory":1,"la1":30.2991,"la2":30.254,"lo1":-89.0895,"lo2":-89.0444,"dy":0.0017,"dx":0.0017,"nx":28,"ny":28,"refTime":"2024-03-28T21:00:00:Z","depth":0,"parameterNumber":3,"parameterNumberName":"V-component_of_WINDS"},"data":[0,0,0,0,0,0,0,0,0,0,0,0,0,0,0,0,0,0,0,0,0,0,0,0,0,0,0,0,0,0,0,0,0,0,0,0,0,0,0,0,0,0,0,0,0,0,0,0,0,0,0,0,0,0,0,0,0,0,-5.6368,-5.6369,0,-5.6494,-5.6495,-5.6497,-5.6491,-5.6489,-5.6487,-5.6486,-5.6609,-5.6613,-5.6618,0,0,0,0,0,0,0,0,0,0,0,0,0,-5.6117,-5.6122,-5.6368,-5.6369,-5.6371,-5.6494,-5.6495,-5.6497,-5.6491,-5.6489,-5.6487,-5.6485,-5.6607,-5.6613,-5.6619,0,0,0,0,0,0,0,0,0,0,0,0,0,-5.6233,-5.6123,-5.6367,-5.6383,-5.6386,-5.6493,-5.6496,-5.6498,-5.6492,-5.6489,-5.6486,-5.6484,-5.6605,-5.6612,-5.662,-5.6718,0,0,-5.6642,-5.6645,0,0,0,0,0,0,0,0,-5.6226,-5.6242,-5.6379,-5.6382,-5.6385,-5.6474,-5.6452,-5.6571,-5.6492,-5.6451,-5.6486,-5.6483,-5.6566,-5.6576,-5.6605,-5.6724,-5.6729,-5.6643,-5.6647,-5.665,-5.6653,0,0,0,0,0,0,0,-5.6218,-5.6236,-5.6417,-5.6381,-5.6385,-5.6382,-5.6396,-5.6475,-5.6521,-5.6455,-5.6455,-5.647,-5.6567,-5.6598,-5.6608,-5.6731,-5.6643,-5.6649,-5.6654,-5.6657,-5.6939,-5.6942,0,0,0,0,0,0,-5.6207,-5.623,-5.6413,-5.6421,-5.6298,-5.6389,-5.6404,-5.6448,-5.6521,-5.6529,-5.6472,-5.6469,-5.6587,-5.66,-5.6612,-5.6735,-5.665,-5.6657,-5.6662,-5.6936,-5.694,-5.6943,0,0,0,0,0,0,-5.6202,-5.6224,-5.6408,-5.6326,-5.6349,-5.6396,-5.6446,-5.6452,-5.6484,-5.6534,-5.6542,-5.6496,-5.6585,-5.6602,-5.6693,-5.6739,-5.6661,-5.6667,-5.6933,-5.6937,-5.6942,-5.6979,0,0,0,0,0,0,-5.6195,-5.6222,-5.6261,-5.6327,-5.6353,-5.6488,-5.6449,-5.6456,-5.6497,-5.6495,-5.6559,-5.6566,-5.6585,-5.6682,-5.67,-5.6748,-5.6673,-5.6929,-5.6935,-5.694,-5.6974,-5.6984,-5.6993,0,0,0,0,0,-5.6186,-5.6264,-5.6263,-5.6285,-5.6403,-5.6491,-5.6506,-5.6527,-5.6501,-5.654,-5.6573,-5.6564,-5.6731,-5.6691,-5.6712,-5.6762,-5.6926,-5.6933,-5.694,-5.6969,-5.6982,-5.6993,0,0,0,0,0,0,-5.62,-5.6273,-5.6272,-5.6375,-5.6427,-5.649,-5.654,-5.6539,-5.6598,-5.6593,-5.6615,-5.6629,-5.6721,-5.675,-5.6705,-5.6862,-5.6825,-5.6836,-5.684,-5.6853,-5.6862,-5.6853,-5.6679,0,0,0,0,0,-5.6216,-5.6283,-5.6342,-5.6426,-5.6453,-5.6492,-5.6531,-5.6543,-5.6597,-5.6618,-5.6657,-5.6709,-5.6773,-5.6814,-5.6875,-5.6978,-5.6992,-5.7022,-5.7032,-5.704,-5.7049,-5.7107,-5.7122,-5.6966,-5.6966,-5.6966,0,0,-5.6247,-5.6296,-5.6336,-5.6431,-5.6473,-5.654,-5.651,-5.6582,-5.6633,-5.6628,-5.6718,-5.6749,-5.6807,-5.6905,-5.6949,-5.6932,-5.7096,-5.7048,-5.7054,-5.706,-5.7116,-5.7131,-5.7144,-5.6971,-5.697,-5.6969,0,0,-5.634,-5.6383,-5.646,-5.6503,-5.6568,-5.6594,-5.6612,-5.6676,-5.6697,-5.6788,-5.6787,-5.6846,-5.6955,-5.6998,-5.7033,-5.7145,-5.714,-5.7164,-5.7215,-5.7271,-5.7283,-5.7294,-5.7336,-5.735,-5.7173,-5.7174,-5.7174,0,-5.6371,-5.6475,-5.6498,-5.6573,-5.6615,-5.6617,-5.6694,-5.6734,-5.6815,-5.6843,-5.6823,-5.6962,-5.7001,-5.711,-5.7137,-5.7166,-5.7187,-5.7157,-5.728,-5.7291,-5.7302,-5.7341,-5.7357,-5.7176,-5.7176,-5.7176,-5.7175,0,-5.651,-5.6583,-5.6636,-5.6718,-5.6765,-5.684,-5.6874,-5.6919,-5.6928,-5.6955,-5.7048,-5.7096,-5.7168,-5.7194,-5.7201,-5.7305,-5.7292,-5.7276,-5.7238,-5.7319,-5.7357,-5.7372,-5.718,-5.7179,-5.7178,-5.7178,0,0,-5.6615,-5.6711,-5.673,-5.6768,-5.6841,-5.6896,-5.6971,-5.7045,-5.7084,-5.7139,-5.7203,-5.7297,-5.7283,-5.7324,-5.7336,-5.7385,-5.7473,-5.7363,-5.7365,-5.7383,-5.7591,-5.7603,-5.7621,-5.747,-5.7473,-5.7475,-5.7586,0,-5.6716,-5.6853,-5.6877,-5.6996,-5.7063,-5.7067,-5.7132,-5.7184,-5.7212,-5.7272,-5.7301,-5.7369,-5.7345,-5.737,-5.7419,-5.7452,-5.7515,-5.7444,-5.7529,-5.7532,-5.7515,-5.764,-5.7653,-5.7756,-5.7601,-5.7603,-5.7605,0,-5.6853,-5.6916,-5.7043,-5.7109,-5.7138,-5.7197,-5.7267,-5.7325,-5.7383,-5.74,-5.7447,-5.7454,-5.7531,-5.749,-5.7597,-5.7549,-5.7585,-5.7606,-5.7611,-5.762,-5.7574,-5.7654,-5.7789,-5.7805,-5.7628,-5.7626,-5.7625,0,-5.6919,-5.7035,-5.7126,-5.7158,-5.7237,-5.7279,-5.7313,-5.7369,-5.7412,-5.7473,-5.7501,-5.7568,-5.7606,-5.7657,-5.7683,-5.765,-5.7788,-5.7749,-5.7804,-5.7804,-5.7834,-5.7832,-5.7978,-5.7855,-5.7855,-5.7855,-5.7854,0,-5.703,-5.7108,-5.7157,-5.7213,-5.73,-5.7327,-5.7411,-5.7444,-5.7495,-5.7556,-5.7562,-5.762,-5.7649,-5.7711,-5.773,-5.7817,-5.7833,-5.7848,-5.7853,-5.7849,-5.7847,-5.7873,-5.7867,-5.7859,-5.7858,-5.7857,-5.7856,0,-5.7118,-5.7154,-5.7255,-5.7322,-5.7341,-5.7402,-5.746,-5.7514,-5.7542,-5.7621,-5.7641,-5.7685,-5.7758,-5.7788,-5.7877,-5.789,-5.799,-5.7988,-5.7972,-5.7973,-5.8027,-5.8022,-5.8196,-5.8221,-5.8081,-5.8082,-5.8083,0,-5.7188,-5.7248,-5.7323,-5.7367,-5.7404,-5.7473,-5.7518,-5.7546,-5.7593,-5.7665,-5.7711,-5.7785,-5.7845,-5.7962,-5.8001,-5.8069,-5.807,-5.8126,-5.808,-5.8074,-5.8072,-5.8069,-5.8076,-5.8134,-5.8136,-5.8137,-5.8138,0,-5.7308,-5.7323,-5.739,-5.7463,-5.7518,-5.7576,-5.7633,-5.7667,-5.7704,-5.7756,-5.7833,-5.788,-5.7973,-5.8046,-5.8117,-5.8151,-5.8151,-5.8152,-5.8169,-5.8166,-5.8154,-5.8163,-5.7996,-5.8148,-5.8147,-5.8146,-5.8146,-5.8145,-5.7389,-5.7444,-5.7507,-5.7581,-5.7627,-5.7681,-5.7736,-5.7773,-5.7838,-5.7918,-5.793,-5.8012,-5.807,-5.8166,-5.8202,-5.8266,-5.8252,-5.8275,-5.8281,-5.8287,-5.8292,-5.8144,-5.8279,-5.8278,-5.8278,-5.8278,-5.8278,0,-5.7511,-5.7552,-5.762,-5.7702,-5.776,-5.7758,-5.7821,-5.7869,-5.7942,-5.7997,-5.8058,-5.8147,-5.8219,-5.8264,-5.8336,-5.8379,-5.8381,-5.8397,-5.8394,-5.8402,-5.83,-5.8279,-5.8394,-5.8394,-5.8394,-5.8394,-5.8394,-5.8394,-5.7581,-5.7674,-5.7698,-5.7814,-5.7854,-5.7937,-5.7974,-5.8023,-5.8067,-5.8167,-5.8228,-5.8258,-5.831,-5.8386,-5.8452,-5.8463,-5.849,-5.8507,-5.8518,-5.8421,-5.8409,-5.8398,-5.8378,-5.8512,-5.8513,-5.8615,-5.8616,-5.8617]}]]